Flag for Germany Weather past 2 weeks in Voerde (Niederrhein), North Rhine-Westphalia, Germany

Now
47 °F

Partly sunny.


Feels Like: 42 °F
Forecast: 41 / 51 °F
Wind: 13 mph from Northwest

Location: Duesseldorf

Current Time: Mar 30, 2015 at 3:45:47 PM

Latest Report: Mar 30, 2015 at 3:00 PM


Visibility: 25 mi

Pressure: 29.75 "Hg

Humidity: 55%

Dew point: 32 °F

Location of Voerde (Niederrhein)Location

Historic Weather in Voerde (Niederrhein) — Graph

°F

Voerde (Niederrhein) temperature yesterday

Maximum temperature yesterday: 53 °F (at 1:00 AM)
Minimum temperature yesterday: 47 °F (at 10:00 PM)
Average temperature yesterday: 51 °F

Past Weeks' High & Low Weather Summary

 TemperatureHumidityPressure
High65 °F (Mar 17, 3:00 PM)99% (Mar 20, 1:00 AM)30.39 "Hg (Mar 20, 1:00 AM)
Low31 °F (Mar 20, 3:00 AM)35% (Mar 17, 5:00 PM)29.26 "Hg (Mar 29, 8:00 PM)
Average44 °F79%30.04 "Hg
* Reported Mar 15 2:00 PM — Mar 30 3:00 PM, Voerde (Niederrhein), Weather by CustomWeather, © 2015

Note: Actual official high and low records may vary slightly from our data, if they occured in-between our weather recording intervals... More about our weather records

Advertising

Voerde (Niederrhein) weather history for previous 24 hours

 ConditionsComfort  
Time TempWeatherWind HumidityBarometerVisibility
3:00 PM
Mon, Mar 30
47 °FPartly sunny.13 mph55%29.75 "Hg25 mi
2:00 PM47 °FPartly sunny.12 mph62%29.72 "Hg16 mi
1:00 PM40 °FSleet. Overcast.8 mph82%29.71 "Hg7 mi
12:00 PM47 °FOvercast.10 mph56%29.66 "Hg31 mi
10:00 AM45 °FScattered clouds.13 mph64%29.60 "Hg34 mi
9:00 AM45 °FPartly sunny.8 mph75%29.57 "Hg34 mi
8:00 AM44 °FPartly sunny.7 mph74%29.54 "Hg34 mi
7:00 AM44 °FPassing clouds.7 mph75%29.50 "Hg37 mi
6:00 AM44 °FPassing clouds.7 mph75%29.47 "Hg28 mi
4:00 AM45 °FPassing clouds.8 mph82%29.44 "Hg25 mi
3:00 AM46 °FSprinkles. Overcast.12 mph87%29.41 "Hg14 mi
2:00 AM46 °FOvercast.6 mph75%29.41 "Hg25 mi
1:00 AM46 °FOvercast.6 mph79%29.41 "Hg22 mi
12:00 AM46 °FPassing clouds.7 mph82%29.41 "Hg22 mi
10:00 PM
Sun, Mar 29
47 °FLight rain. Overcast.10 mph85%29.35 "Hg6 mi
9:00 PM47 °FThunderstorms. Passing clouds.9 mph87%29.32 "Hg22 mi
8:00 PM53 °FLight rain. Overcast.14 mph83%29.26 "Hg16 mi
7:00 PM53 °FLight rain. Low clouds.15 mph85%29.29 "Hg7 mi
6:00 PM52 °FRain. Low clouds.14 mph92%29.29 "Hg5 mi
4:00 PM52 °FLight rain. Low clouds.12 mph88%29.38 "Hg8 mi
3:00 PM51 °FLight rain. Low clouds.12 mph91%29.44 "Hg11 mi
Weather by CustomWeather, © 2015

See weather overviewHow to use our weather pages